Find Starlink 37809

NORAD ID: 100288 Int'l Des: 2026-183 Owner: SPXS Country: US Constellation: starlink operational

Aktuelle Ansicht

3D-Globus wird geladen...

About Starlink 37809

Starlink 37809 (NORAD 100288) is a starlink constellation satellite launched Aug 11, 2026 by SPXS of US. with a mass of 575.00 kg.

Nächste Überflüge

Passes for default location (London). Set your location on the main map for personalized predictions.

Höhenverlauf

Loading altitude history...

Zweizeiliger Elementsatz

1 A0288U 26183S 26247.78916276 .00171432 00000-0 10982-2 0 9995
2 A0288 53.1588 335.0073 0001212 51.6324 308.4805 15.75276221 3838
Epoch: 4. Sept. 2026 • Age: 20 hours

Aktueller Status

Höhe 343.5 km
Apogäum / Perigäum N/A
Geschwindigkeit 7.71 km/s
Subsatellitenpunkt 26.62°N, 144.94°E
Startdatum 11. Aug. 2026
Alter 24 days
Typ internet

Technische Details

Klassifizierung Payload
Masse 575.00 kg
Trockenmasse 530.00 kg
Gesamtmasse 575.00 kg
Länge 0.30 m
Durchmesser 4.10 m
Spannweite 29.00 m
Form Box + pan
Hersteller SPXS
Bus-Typ Starlink V2MO
Phasenstatus In Orbit
Besitzer/Staat SPXS/US

Most Searched